DW2959 Murcia ES current weather conditions

sailwx.info

Wind from 089

Air temperature 16.7° C
Dewpoint 12.4° C

Last reported at 2015-May-27 02:49 UTC.
Time now 2015-May-27 03:46 UTC

Location: N 38°00' W 001°02'.
View on Google Maps.

See reports from other nearby stations

  
Tides and Currents Weather Stations Pressure Air Temp Water Temp Dewpoint Dewpoint Depression Visibility Wind Speed Wind Dir Waves Ship Positions
date/time (UTC)wind fromknots sea level pressurealtimeterstation pressurevisibilityair tempwater tempwave heightnotes
2015-May-27 02:49 089 16.7
2015-May-27 02:34 089 17.2
2015-May-27 02:19 089 16.7
2015-May-27 02:04 089 17.2
2015-May-27 01:49 089 17.2
2015-May-27 01:34 089 17.8
2015-May-27 01:19 089 17.8
2015-May-27 01:04 088 18.3
2015-May-27 00:49 088 18.3
2015-May-27 00:34 088 0 18.3
2015-May-27 00:19 087 18.3
2015-May-27 00:04 086 0 18.3
2015-May-26 23:49 085 0 18.9
2015-May-26 23:34 088 0 18.9
2015-May-26 23:19 096 4 19.4
2015-May-26 23:03 089 2 19.4
2015-May-26 22:48 082 3 20.0
2015-May-26 22:33 070 1 20.0
2015-May-26 22:18 065 3 21.1
2015-May-26 22:03 014 4 22.2
2015-May-26 21:48 067 1 22.2
2015-May-26 21:33 067 0 22.2
2015-May-26 21:18 067 22.8
2015-May-26 21:03 067 2 22.8
2015-May-26 20:48 044 1 23.9
2015-May-26 20:33 184 6 23.9
2015-May-26 20:18 192 9 23.9
2015-May-26 20:03 203 11 23.9
2015-May-26 19:48 196 12 23.9
2015-May-26 19:33 172 12 23.9
2015-May-26 19:18 174 13 23.9
2015-May-26 19:03 178 13 24.4
2015-May-26 18:48 186 13 24.4
2015-May-26 18:33 187 12 25.0
2015-May-26 18:18 177 12 25.0
2015-May-26 18:03 186 11 25.6
2015-May-26 17:48 174 12 25.6
2015-May-26 17:33 170 13 25.6
2015-May-26 17:18 190 12 26.1
2015-May-26 17:03 175 12 26.1
2015-May-26 16:48 161 14 26.1
2015-May-26 16:33 182 12 26.7
2015-May-26 16:18 166 12 26.7
2015-May-26 16:03 170 13 26.7
2015-May-26 15:48 177 14 26.7
2015-May-26 15:33 205 14 27.2
2015-May-26 15:18 193 16 26.7
2015-May-26 15:03 177 15 27.2
2015-May-26 14:48 166 13 27.2
2015-May-26 14:33 214 14 27.8
2015-May-26 14:17 175 15 27.2
2015-May-26 14:02 215 13 27.8
2015-May-26 13:47 184 14 27.8
2015-May-26 13:32 165 13 27.8
2015-May-26 13:17 198 9 28.3
2015-May-26 13:02 223 6 28.9
2015-May-26 12:48 214 6 28.3
2015-May-26 12:32 221 5 28.3
2015-May-26 12:17 195 6 28.3
2015-May-26 12:02 216 2 28.3
2015-May-26 11:47 150 0 28.3
2015-May-26 11:32 279 2 27.8
2015-May-26 11:17 152 5 27.8
2015-May-26 11:02 040 2 27.2
2015-May-26 10:47 340 0 26.7
2015-May-26 10:32 340 1 26.1
2015-May-26 10:17 023 1 25.6
2015-May-26 09:47 305 24.4
2015-May-26 09:32 302 23.9
2015-May-26 09:17 308 1 23.3
2015-May-26 09:01 271 0 22.8
2015-May-26 08:46 254 1 21.7
2015-May-26 08:31 291 2 21.1
2015-May-26 08:16 276 0 20.6
2015-May-26 08:01 277 0 20.0
2015-May-26 07:46 234 1 20.0
2015-May-26 07:31 220 1 19.4
2015-May-26 07:16 229 1 18.9
2015-May-26 07:01 260 1 18.3
2015-May-26 06:46 269 3 17.8
2015-May-26 06:31 265 3 16.7
2015-May-26 06:16 262 3 16.7
2015-May-26 05:46 241 0 16.7
2015-May-26 05:31 225 3 16.1
2015-May-26 05:16
2015-May-26 05:01
2015-May-26 04:46
2015-May-26 04:31
2015-May-26 04:15
2015-May-26 03:45
2015-May-26 03:30
2015-May-26 03:15
2015-May-26 03:00 206 14.4
2015-May-26 02:45 206 14.4
2015-May-26 02:30 206 15.0
2015-May-26 02:15 206 15.0
2015-May-26 01:45 206 15.6
2015-May-26 01:30 206 15.6
2015-May-26 01:15 206 15.6
2015-May-26 01:00 206 15.6
2015-May-26 00:45 206 15.6
2015-May-26 00:30 206 16.1
2015-May-26 00:15 206 16.1
2015-May-26 00:00 206 16.7
2015-May-25 23:45 206 16.7
2015-May-25 23:15 206 16.7
2015-May-25 23:00 206 17.2
2015-May-25 22:45 206 17.2
2015-May-25 22:30 206 17.8
2015-May-25 22:14 206 17.8
2015-May-25 21:59 206 17.8
2015-May-25 21:44 206 17.8
2015-May-25 21:29 147 18.3
2015-May-25 21:16 134 18.9
2015-May-25 20:59 134 20.0
2015-May-25 20:44 134 20.6
2015-May-25 20:14 134 21.1
2015-May-25 19:59 134 21.1
2015-May-25 19:29 134 0 21.7
2015-May-25 19:14 134 22.2
2015-May-25 18:59 135 22.8
2015-May-25 18:44 136 0 23.3
2015-May-25 18:29 101 1 23.3
2015-May-25 18:14 101 2 23.9
2015-May-25 17:59 095 1 23.9
2015-May-25 17:44 101 2 24.4
2015-May-25 17:29 082 1 24.4
2015-May-25 17:14 132 2 24.4
2015-May-25 16:59 106 3 24.4
2015-May-25 16:44 090 4 24.4
2015-May-25 16:29 097 4 25.0
2015-May-25 16:14 040 3 25.0
2015-May-25 15:59 097 3 25.0
2015-May-25 15:44 064 3 25.0
2015-May-25 15:29 085 4 25.0
2015-May-25 14:59 101 3 25.6
2015-May-25 14:46 113 4 25.0
2015-May-25 14:30 082 5 25.0
2015-May-25 13:59 079 5 25.0
2015-May-25 13:45 101 5 25.0
2015-May-25 13:29 084 6 25.0
2015-May-25 13:15 109 6 25.0
2015-May-25 13:00 106 6 24.4
2015-May-25 12:44 108 8 24.4
2015-May-25 12:29 111 6 24.4
2015-May-25 12:14 109 6 24.4
2015-May-25 11:59 074 7 24.4
2015-May-25 11:43 103 7 24.4
2015-May-25 11:29 100 6 24.4
2015-May-25 11:13 080 6 25.0
2015-May-25 10:59 075 6 24.4
2015-May-25 10:44 080 6 24.4
2015-May-25 10:29 045 6 23.9
2015-May-25 10:14 097 5 23.3
2015-May-25 09:58 040 4 22.8
2015-May-25 09:42 028 4 22.2
2015-May-25 09:27 341 1 21.7
2015-May-25 09:13 248 0 21.1
2015-May-25 08:59 229 0 21.1
2015-May-25 08:28 222 2 20.0
2015-May-25 08:12 213 6 19.4
2015-May-25 07:57 225 2 18.9
2015-May-25 07:42 227 3 18.3
2015-May-25 07:27 232 2 17.8
2015-May-25 07:12 222 2 17.8
2015-May-25 06:57 214 3 17.2
2015-May-25 06:42 214 1 17.2
2015-May-25 06:27 229 2 16.7
2015-May-25 06:12 242 0 16.7
2015-May-25 05:57 244 2 16.1
2015-May-25 05:42 227 2 16.1
2015-May-25 05:27
2015-May-25 05:12
2015-May-25 04:56
2015-May-25 04:41
2015-May-25 03:56
2015-May-25 03:41
2015-May-25 03:26